Regional Weather Roundup
Issued by NWS

Home | Current Version | Previous Version | Graphics & Text | Print | Product List | Glossary On
Versions: 1 2 3 4 5 6 7 8 9 10 11 12 13 14 15 16 17 18 19 20 21 22 23 24 25 26 27 28 29 30 31 32 33 34 35 36 37 38 39 40 41 42 43 44 45 46 47 48 49 50
000
ASUS44 KMEG 280100
RWRTN
TENNESSEE HOURLY STATE WEATHER ROUNDUP
NATIONAL WEATHER SERVICE MEMPHIS TN
700 PM CST TUE JAN 27 2015

TNZ002-004-019-021-049-052-054-088>092-280200-
WEST TENNESSEE

CITY           SKY/WX    TMP DP  RH WIND       PRES   REMARKS
MEMPHIS INTL   CLEAR     48  34  58 NE8       30.19R
NWS MEMPHIS      N/A     46 N/A N/A MISG        N/A
JACKSON        CLEAR     38  30  73 N7        30.20R WCI  33
DYERSBURG      CLEAR     39  21  48 NE3       30.22R
UNION CITY     CLEAR     34  30  86 NE7       30.20R WCI  28
PARIS          CLEAR     32  27  80 NE5       30.20R WCI  27
LEXINGTON      CLEAR     37  28  70 NE7       30.18R WCI  32
SAVANNAH         N/A     41  30  65 N7        30.18R
$$

TNZ008-025-027-028-033-062-065-066-280200-
NORTH MIDDLE TENNESSEE

CITY           SKY/WX    TMP DP  RH WIND       PRES   REMARKS
NASHVILLE      CLOUDY    37  30  75 N7        30.20R WCI  32
CLARKSVILLE    CLOUDY    36  29  75 N10       30.21R WCI  28
COOKEVILLE     CLOUDY    34  28  80 VRB6      30.15R WCI  29
CROSSVILLE     CLOUDY    31  25  78 N10       30.11R WCI  22
$$

TNZ061-075-076-078-094-096-097-280200-
SOUTH MIDDLE TENNESSEE

CITY           SKY/WX    TMP DP  RH WIND       PRES   REMARKS
FAYETTEVILLE   MOCLDY    36  28  75 N15G26    30.14R WCI  26
TULLAHOMA      CLOUDY    36  28  75 N9        30.15R WCI  29
WINCHESTER     CLOUDY    36  28  75 N9        30.15R WCI  29
SHELBYVILLE    CLOUDY    37  30  75 N13       30.18R WCI  29
$$

TNZ017-018-042-046-047-280200-
NORTHEAST TENNESSEE

CITY           SKY/WX    TMP DP  RH WIND       PRES   REMARKS
TRI CITIES     PTCLDY    29  20  69 W8        30.06R WCI  21
ELIZABETHTON   CLEAR     27  19  74 W5        30.04R WCI  21
$$

TNZ012-013-036-069-073-074-280200-
CENTRAL EAST TENNESSEE

CITY           SKY/WX    TMP DP  RH WIND       PRES   REMARKS
KNOXVILLE      CLOUDY    34  27  75 N7        30.13R WCI  28
OAK RIDGE      CLOUDY    34  28  79 VRB7      30.15R WCI  28
GATLINBURG     CLOUDY    30  25  80 N5        30.12R WCI  25
$$

TNZ083-085-099-280200-
SOUTHEAST TENNESSEE

CITY           SKY/WX    TMP DP  RH WIND       PRES   REMARKS
CHATTANOOGA    CLOUDY    39  29  67 N13       30.14R WCI  31
$$

SKY/WX REPORTED AS FAIR MEANS FEW OR NO CLOUDS BELOW
12 THOUSAND FEET.




USA.gov is the U.S. government's official web portal to all federal, state and local government web resources and services.